{"data":{"norad_id":49122,"epoch":"2026-09-20T22:44:15.677952Z","epoch_age_seconds":62757,"freshness":"FRESH","line1":"1 49122U 21079A   26263.94740368 -.00000079  00000+0 -72305-5 0  9996","line2":"2 49122  98.2530 337.5220 0002043  68.9678 291.1739 14.57681209268036","mean_motion":14.57681209,"eccentricity":0.0002043,"inclination_deg":98.253,"raan_deg":337.522,"arg_perigee_deg":68.9678,"mean_anomaly_deg":291.1739,"bstar":-7.2305e-6,"rev_number":26803,"period_min":98.787031835848,"perigee_km":699.22487691456,"apogee_km":702.11727789499,"semimajor_km":7078.8080774048,"source":"CELESTRAK","updated_at":"2026-09-21T09:00:07.983822Z"}}